Snowfall_Accumulation
0.0 0.0 0.0 0.0 0.0 0.0 0.0 0.0 0.0 0.0 0.0 0.0 0.0 0.0 0.0 0.0 0.0 0.0 0.0 0.0 0.0 0.0 0.0 0.0 0.0 0.0 0.0 0.0 0.0 0.0 0.0 0.0 0.0 0.0 0.0 0.0 0.0 0.0 0.0 0.0 0.0 0.0 0.0
0.0 0.0 0.1 0.0 0.0 0.0 0.0 0.0 0.0 0.0 0.0 0.0 0.0 0.0 0.0 0.0 0.0 0.0 0.0 0.0 0.0 0.0 0.0 0.0 0.0 0.0 0.0 0.0 0.0 0.0 0.0 0.0 0.0 0.0 0.0 0.0 0.0 0.0 0.0 0.0 0.0 0.0 0.0
0.0 0.0 0.1 0.1 0.1 0.1 0.1 0.0 0.0 0.0 0.0 0.0 0.0 0.0 0.0 0.0 0.0 0.0 0.0 0.0 0.0 0.0 0.0 0.0 0.0 0.0 0.0 0.0 0.0 0.0 0.0 0.0 0.0 0.0 0.0 0.0 0.0 0.0 0.0 0.0 0.0 0.0 0.0
0.0 0.0 0.0 0.1 0.0 0.1 0.1 0.0 0.0 0.0 0.0 0.0 0.0 0.0 0.0 0.0 0.0 0.0 0.0 0.0 0.0 0.0 0.0 0.0 0.0 0.0 0.0 0.0 0.0 0.0 0.0 0.0 0.0 0.0 0.0 0.0 0.0 0.0 0.0 0.0 0.0 0.0 0.0
0.0 0.0 0.0 0.1 0.0 0.0 0.0 0.0 0.0 0.2 0.0 0.0 0.0 0.0 0.0 0.0 0.0 0.0 0.0 0.0 0.0 0.0 0.0 0.0 0.0 0.0 0.0 0.0 0.0 0.0 0.0 0.0 0.0 0.0 0.0 0.0 0.0 0.0 0.0 0.0 0.0 0.0 0.0
0.0 0.0 0.0 0.0 0.0 0.0 0.0 0.0 0.0 0.3 0.0 0.0 0.0 0.0 0.0 0.0 0.0 0.0 0.0 0.0 0.0 0.0 0.0 0.0 0.0 0.0 0.0 0.0 0.0 0.0 0.0 0.0 0.0 0.0 0.0 0.0 0.0 0.0 0.0 0.0 0.0 0.0 0.0
0.0 0.0 0.0 0.0 0.0 0.0 0.0 0.0 0.0 0.3 0.0 0.0 0.0 0.0 0.0 0.0 0.0 0.0 0.0 0.0 0.0 0.0 0.0 0.0 0.0 0.0 0.0 0.0 0.0 0.0 0.0 0.0 0.0 0.0 0.0 0.0 0.0 0.0 0.0 0.0 0.0 0.0 0.0
0.0 0.0 0.0 0.0 0.0 0.0 0.0 0.0 0.0 0.2 0.0 0.0 0.0 0.0 0.0 0.0 0.0 0.0 0.0 0.0 0.0 0.0 0.0 0.0 0.0 0.0 0.0 0.0 0.0 0.0 0.0 0.0 0.0 0.0 0.0 0.0 0.0 0.0 0.0 0.0 0.0 0.0 0.0
0.0 0.0 0.0 0.0 0.0 0.0 0.0 0.0 0.0 0.1 0.0 0.0 0.0 0.0 0.0 0.0 0.0 0.0 0.0 0.0 0.0 0.0 0.0 0.0 0.0 0.0 0.0 0.0 0.0 0.0 0.0 0.0 0.0 0.0 0.0 0.0 0.0 0.0 0.0 0.0 0.0 0.0 0.0
0.0 0.1 0.0 0.0 0.0 0.0 0.0 0.0 0.0 0.0 0.0 0.0 0.0 0.0 0.0 0.0 0.0 0.0 0.0 0.0 0.0 0.0 0.0 0.0 0.0 0.0 0.0 0.0 0.0 0.0 0.0 0.0 0.0 0.0 0.0 0.0 0.0 0.0 0.0 0.0 0.0 0.0 0.0
0.8 0.2 0.0 0.0 0.0 0.0 0.0 0.0 0.0 0.0 0.0 0.0 0.0 0.0 0.0 0.0 0.0 0.0 0.0 0.0 0.0 0.0 0.0 0.0 0.0 0.0 0.0 0.0 0.0 0.0 0.0 0.0 0.0 0.0 0.0 0.0 0.0 0.0 0.0 0.0 0.0 0.2 0.9
1.3 0.7 0.2 0.1 0.0 0.0 0.0 0.0 0.0 0.0 0.0 0.0 0.0 0.0 0.0 0.0 0.0 0.0 0.0 0.0 0.0 0.0 0.0 0.0 0.0 0.0 0.0 0.0 0.0 0.0 0.0 0.0 0.0 0.0 0.0 0.0 0.0 0.0 0.0 0.0 0.4 1.0 0.5
2.5 1.5 0.3 0.1 0.2 0.1 0.0 0.0 0.0 0.0 0.0 0.0 0.0 0.0 0.0 0.0 0.0 0.0 0.0 0.0 0.0 0.0 0.0 0.0 0.0 0.0 0.0 0.0 0.0 0.0 0.0 0.0 0.0 0.0 0.0 0.0 0.0 0.1 0.0 1.5 0.8 0.3 1.3
5.9 3.0 1.6 0.7 0.3 0.2 0.1 0.0 0.0 0.0 0.0 0.0 0.0 0.0 0.0 0.0 0.0 0.0 0.0 0.0 0.0 0.0 0.0 0.0 0.0 0.0 0.0 0.0 0.0 0.0 0.0 0.0 0.0 0.0 0.0 0.0 0.6 0.3 0.9 0.6 1.1 0.8 1.0
7.8 4.8 2.3 1.2 0.5 0.3 0.1 0.1 0.0 0.0 0.0 0.0 0.0 0.0 0.0 0.0 0.0 0.0 0.0 0.0 0.0 0.0 0.0 0.0 0.0 0.0 0.0 0.0 0.0 0.0 0.0 0.1 0.4 0.1 2.2 1.8 1.7 1.1 1.6 1.2 0.6 0.7 0.4
10.8 6.5 4.0 1.3 0.6 0.5 0.3 0.1 0.0 0.0 0.0 0.0 0.0 0.0 0.0 0.0 0.0 0.0 0.0 0.0 0.0 0.0 0.0 0.0 0.0 0.0 0.0 0.0 0.0 0.0 0.0 0.5 2.8 3.0 2.7 1.6 1.0 0.5 0.0 0.1 0.4 0.6 1.7
14.8 9.7 4.9 3.1 1.9 0.9 0.4 0.1 0.0 0.0 0.0 0.0 0.0 0.0 0.0 0.0 0.0 0.0 0.0 0.0 0.0 0.0 0.0 0.0 0.0 3.1 0.0 0.0 0.0 3.0 3.4 3.3 2.3 1.7 1.1 1.0 0.3 0.4 0.3 0.0 0.4 1.8 2.9
15.9 11.5 8.3 4.1 1.9 0.8 0.6 0.2 0.1 0.0 0.0 0.0 0.0 0.0 0.4 0.0 0.0 0.3 0.9 0.7 0.0 1.2 0.6 0.8 6.6 6.9 1.4 2.4 5.3 3.9 2.4 0.9 1.0 0.5 0.2 0.0 0.1 0.1 0.4 0.6 3.2 1.7 0.1
19.1 16.7 14.1 6.7 3.0 1.8 0.6 0.4 0.2 0.0 0.0 0.5 1.1 0.0 1.0 0.5 0.9 3.8 3.0 7.1 3.5 9.8 6.8 4.9 3.8 2.9 2.2 0.0 0.5 0.4 0.2 0.1 0.0 0.0 0.0 0.3 0.2 0.1 1.1 3.5 2.2 0.2 0.2
20.0 24.1 15.6 5.0 3.3 0.8 0.1 0.1 0.1 0.0 0.0 0.0 0.0 0.0 0.0 0.1 2.5 6.5 5.9 5.0 5.6 6.1 4.6 2.9 1.6 1.0 0.5 0.2 0.0 0.0 0.0 0.0 0.0 0.0 0.2 0.1 0.3 0.7 4.4 1.9 1.0 1.0 0.3
19.5 21.8 14.2 4.0 1.8 0.3 0.0 0.0 0.0 0.0 1.2 2.1 2.5 2.6 0.6 1.2 1.3 5.6 4.7 2.9 2.2 2.1 1.3 0.4 0.2 0.1 0.0 0.0 0.0 0.0 0.0 0.1 0.5 0.9 0.1 0.0 0.3 2.9 1.0 1.2 1.1 0.8 0.4
20.6 24.6 18.4 11.5 8.5 6.2 0.0 0.9 4.4 1.5 1.8 4.7 2.1 4.1 3.1 2.2 1.6 0.2 0.1 2.1 2.2 3.5 2.4 1.9 1.6 0.5 0.2 0.0 0.0 0.0 0.2 0.4 1.1 0.4 0.4 0.5 2.9 0.1 0.2 0.5 0.6 0.7 0.7
20.9 28.4 30.8 24.9 10.6 6.8 5.7 4.1 5.7 5.4 6.3 4.5 4.8 7.7 7.3 6.1 4.9 3.0 3.4 6.1 5.1 4.8 6.7 4.0 1.6 2.8 1.9 0.6 0.0 0.5 1.1 1.5 1.1 0.9 1.8 1.7 0.4 0.4 0.4 0.2 0.1 0.6 0.6
18.8 26.1 24.8 20.8 10.2 10.9 12.9 6.6 5.2 4.7 4.4 6.9 7.8 7.4 7.6 7.6 9.9 9.0 7.9 6.7 9.1 8.7 8.1 6.4 6.3 4.8 3.4 3.5 2.2 1.8 2.0 0.4 2.2 2.3 2.2 0.8 0.5 0.2 0.3 0.6 0.4 0.4 0.4
15.5 21.3 23.9 23.7 16.5 12.0 15.6 12.5 11.2 6.0 7.2 7.8 9.1 9.2 9.4 8.8 8.5 8.8 8.6 8.1 7.6 5.7 5.9 7.7 7.1 7.4 7.2 5.6 4.7 5.0 4.9 5.1 4.4 4.0 3.0 2.0 1.1 0.5 0.6 0.8 0.5 0.4 0.1
12.8 17.1 21.6 22.0 22.2 18.3 12.1 13.5 9.3 7.2 6.6 7.1 7.3 6.8 6.9 6.8 5.8 5.7 7.4 7.9 6.7 6.5 7.0 7.3 7.8 8.3 6.9 6.5 6.7 6.4 6.1 4.6 3.8 3.9 3.6 2.9 2.2 1.9 0.9 1.2 1.2 0.8 0.6